Location: Caltech
(34.1382°N, 118.1253°W)
Time: 04:31:40
(UTC-08:00)

Iridium 62 - Visible Passes

Search period start: 24 February 2017 00:00
Search period end: 06 March 2017 00:00
Orbit: 776 x 779 km, 86.4° (Epoch: 23 February)

Date Brightness Start Highest point End Pass type
(mag) Time Alt. Az. Time Alt. Az. Time Alt. Az.
24 Feb 6.0 18:53:09 10° N 18:58:11 47° E 19:03:12 10° SSE visible
24 Feb 8.5 20:35:25 10° NW 20:38:25 16° W 20:41:26 10° WSW visible
25 Feb 6.8 18:20:17 10° NNE 18:24:32 25° E 18:28:45 10° SE visible
25 Feb 7.6 20:00:41 10° NNW 20:05:10 30° W 20:09:39 10° SW visible
26 Feb 6.4 19:26:41 10° N 19:31:48 59° W 19:36:54 10° SSW visible
27 Feb 5.7 18:53:06 10° N 18:58:19 72° E 19:03:31 10° S visible
28 Feb 6.3 18:19:56 10° NNE 18:24:44 36° E 18:29:30 10° SSE visible
28 Feb 8.3 20:01:22 10° NW 20:05:07 20° W 20:08:52 10° SW visible
01 Mar 7.2 19:27:00 10° NNW 19:31:49 39° W 19:36:37 10° SSW visible
02 Mar 6.0 18:53:11 10° N 18:58:24 77° W 19:03:36 10° S visible
03 Mar 5.9 18:19:46 10° N 18:24:53 55° E 18:29:58 10° SSE visible
03 Mar 8.9 20:02:32 10° NW 20:05:01 14° W 20:07:30 10° WSW visible
04 Mar 9.3 05:35:46 10° E 05:37:29 12° ENE 05:39:12 10° ENE visible
04 Mar 8.1 19:27:31 10° NNW 19:31:48 26° W 19:36:04 10° SW visible
05 Mar 6.8 18:53:25 10° NNW 18:58:27 51° W 19:03:28 10° SSW visible
